Regional Weather Roundup
Issued by NWS

Home | Current Version | Previous Version | Graphics & Text | Print | Product List | Glossary On
Versions: 1 2 3 4 5 6 7 8 9 10 11 12 13 14 15 16 17 18 19 20 21 22 23 24 25 26 27
000
ASUS45 KPSR 242110
RWRAZ

ARIZONA HOURLY REGIONAL WEATHER ROUNDUP
NATIONAL WEATHER SERVICE PHOENIX AZ
200 PM MST FRI NOV 24 2017

NOTE: FAIR INDICATES FEW OR NO CLOUDS BELOW 12,000 FEET WITH NO
SIGNIFICANT WEATHER AND/OR OBSTRUCTIONS TO VISIBILITY.

AZZ001>003-036-242200-
NORTHWEST ARIZONA

CITY           SKY/WX    TMP DP  RH WIND       PRES   REMARKS
BULLHEAD CITY  SUNNY     79  36  21 NW9       29.89F
KINGMAN        SUNNY     79  28  15 SW14      30.00F
$$

AZZ004>008-015-016-018-242200-
NORTH CENTRAL ARIZONA

CITY           SKY/WX    TMP DP  RH WIND       PRES   REMARKS
GRAND CANYON   SUNNY     67  22  18 NW8G18    30.15F
WILLIAMS       SUNNY     70  14  11 W13G23    30.17S
PRESCOTT       SUNNY     77  20  12 W14G20    30.07F
FLAGSTAFF      SUNNY     69  12  11 W13G22    30.16F
PAYSON         SUNNY     73  25  16 SW9       30.10F
PAGE           SUNNY     63  32  31 E5        30.00F
$$

AZZ009>014-017-242200-
NORTHEAST ARIZONA

CITY           SKY/WX    TMP DP  RH WIND       PRES   REMARKS
WINSLOW        SUNNY     72  24  16 NW6       30.04F
SAINT JOHNS    SUNNY     74  18  12 NW12      30.06F
WINDOW ROCK    SUNNY     72  13  10 W10       30.10F
SHOW LOW       SUNNY     73  23  15 SW10      30.13F
$$

AZZ540-542>544-546-548-242200-
GREATER PHOENIX AREA

CITY           SKY/WX    TMP DP  RH WIND       PRES   REMARKS
PHOENIX        MOSUNNY   83  32  16 VRB3      29.88F
BUCKEYE        SUNNY     81  70  69 S7        29.89F
GLENDALE       SUNNY     82  36  18 CALM      29.90F
LUKE AFB       SUNNY     81  36  19 CALM      29.87F
DEER VALLEY    SUNNY     81  31  16 VRB5      29.89F
SCOTTSDALE     SUNNY     83  35  18 VRB3      29.91F
MESA-FALCON    SUNNY     84  34  16 VRB5      29.91F
MESA-GATEWAY   SUNNY     81  30  16 CALM      29.91F
CHANDLER       SUNNY     82  32  16 CALM      29.90F
$$

AZZ539-553-242200-
SOUTHWEST MARICOPA COUNTY AND PINAL COUNTY

CITY           SKY/WX    TMP DP  RH WIND       PRES   REMARKS
CASA GRANDE    NOT AVBL
$$

AZZ503-504-507>509-242200-
SOUTHEAST ARIZONA

CITY           SKY/WX    TMP DP  RH WIND       PRES   REMARKS
TUCSON         SUNNY     87  25  10 VRB6      29.96F
DAVIS-MONTHAN  SUNNY     87  24  10 N7        29.94F
RYAN FIELD     SUNNY     86  28  12 CALM      29.95F
NOGALES        SUNNY     85  22  10 SW3       30.01F
SIERRA VISTA   SUNNY     83  16   8 NW14      30.06F
DOUGLAS        SUNNY     80  22  11 SW6       30.02F
SAFFORD        SUNNY     75  25  15 W8        29.96F
$$

AZZ532-242200-
SOUTHWEST ARIZONA

CITY           SKY/WX    TMP DP  RH WIND       PRES   REMARKS
YUMA           SUNNY     88  37  16 E5        29.85F
$$

CAZ041-043-047-048-061-525>527-560>570-242200-
SOUTHERN CALIFORNIA

CITY           SKY/WX    TMP DP  RH WIND       PRES   REMARKS
DOWNTOWN L.A.  SUNNY     84  42  22 VRB3      29.86F
L.A. AIRPORT   MOSUNNY   75  57  53 W10       29.88F
SAN DIEGO      MOSUNNY   80  41  24 S6        29.88F
BURBANK        SUNNY     86  42  21 S8        29.88F
ONTARIO        PTSUNNY   85  35  16 W3        29.89F
RIVERSIDE      MOSUNNY   86  42  21 W5        29.88F
PALM SPRINGS   SUNNY     88  40  18 SE7       29.86F
EL CENTRO NAS  MOSUNNY   86  42  21 E5        29.86F
IMPERIAL       SUNNY     87  39  18 CALM      29.83F
BLYTHE         SUNNY     81  37  20 CALM      29.87F
NEEDLES        SUNNY     82  35  18 NE8       29.89F
$$

NVZ020-UTZ003-242200-
SOUTHERN NEVADA-UTAH

CITY           SKY/WX    TMP DP  RH WIND       PRES   REMARKS
LAS VEGAS      PTSUNNY   74  37  26 E3        29.96F
SALT LAKE CITY PTSUNNY   63  39  41 N10       30.07R
$$

NMZ009-TXZ055-242200-
NEW MEXICO-WEST TEXAS

CITY           SKY/WX    TMP DP  RH WIND       PRES   REMARKS
ALBUQUERQUE    MOSUNNY   66  25  21 S7        30.02F
EL PASO        MOSUNNY   75  26  16 W16       29.96F
$$


........................KEY........................
SKY/WX - SKY CONDITION/WEATHER
TMP    - TEMPERATURE IN FAHRENHEIT
DP     - DEW POINT IN FAHRENHEIT
RH     - RELATIVE HUMIDITY IN PERCENT
WIND   - DIRECTION AND SPEED IN MILES PER HOUR (MPH)
VRB    - VARIABLE WIND DIRECTION
PRES   - MEAN SEA LEVEL PRESSURE IN INCHES OF MERCURY
         F - FALLING PRESSURE   R - RISING PRESSURE
         S - STEADY PRESSURE
VSB    - VISIBILITY IN MILES
HX     - HEAT INDEX IN FAHRENHEIT
WCI    - WIND CHILL INDEX IN FAHRENHEIT
TC     - TEMPERATURE IN CELSIUS WHICH IS ALSO KNOWN AS
         TEMPERATURE IN CENTIGRADE
AFB    - AIR FORCE BASE
         LUKE AFB IS LUKE AIR FORCE BASE
         DAVIS-MONTHAN IS DAVIS-MONTHAN AIR FORCE BASE
NAS    - NAVAL AIR STATION
         EL CENTRO NAS IS EL CENTRO NAVAL AIR STATION
N/A    - NOT AVAILABLE





USA.gov is the U.S. government's official web portal to all federal, state and local government web resources and services.